THURAYA-3 1 32404U 08001A 21063.78289885 -.00000312 00000-0 00000-0 0 9996 2 32404 3.8144 14.8073 0004721 332.1268 196.1447 1.00271999 48133 BLOCK DM-SL R/B 1 32405U 08001B 21063.74563278 -.00000132 00000-0 13360-2 0 9999 2 32405 6.0553 341.5025 7131287 3.1172 283.5399 2.25201845108083